Regional Weather Roundup
Issued by NWS Sterling, VA

Home | Current Version | Previous Version | Text Only | Print | Product List | Glossary On
Versions: 1 2 3 4 5 6 7 8 9 10 11 12 13 14 15 16 17 18 19 20 21 22 23 24 25 26 27
000
ASUS41 KLWX 190510
RWRLWX

REGIONAL WEATHER ROUNDUP
NATIONAL WEATHER SERVICE BALTIMORE MD/WASHINGTON DC
100 AM EDT SAT APR 19 2014

Note: "FAIR" indicates few or no clouds below 12,000 feet
with no significant weather and/or obstructions to visibility.
 TC=TEMPERATURE CELSIUS

 * =Non NWS site. Station does not report precipitation (e.g. rain,
    snow, etc.), thunder, or fog.

DCZ001-MDZ009-015-VAZ040>042-051-053>054-190600-
WASHINGTON METRO

CITY           SKY/WX    TMP DP  RH WIND       PRES   REMARKS
WASHINGTON NAT CLOUDY    49  37  63 SW5       30.30R
DULLES         CLOUDY    44  35  70 S3        30.29R
ANDREWS AFB    CLOUDY    44  37  75 S5        30.29R
FT BELVOIR     CLOUDY    43  38  83 CALM      30.30R
QUANTICO       CLOUDY    49  38  65 SW5       30.30S
COLLEGE PARK*  CLOUDY    45  37  76 CALM      30.29R
LEESBURG*      CLOUDY    46  39  76 S6        30.29R
MANASSAS*      CLOUDY    43  39  87 CALM      30.29S
GAITHERSBURG*  CLOUDY    45  34  65 S5        30.30S

$$

MDZ006>007-011-014-190600-
BALTIMORE METRO

CITY           SKY/WX    TMP DP  RH WIND       PRES   REMARKS
BWI AIRPORT    CLOUDY    42  36  79 CALM      30.28R
MD SCIENCE CTR   N/A     49  34  56 MISG      30.29S
MARTIN STATE   CLOUDY    45  39  81 CALM      30.30R
ANNAPOLIS      CLOUDY    47  39  74 S3        30.29R
FORT MEADE*    CLOUDY    39  36  87 CALM      30.31R

$$

MDZ012-015-019>023-190600-
MARYLAND EASTERN SHORE

CITY           SKY/WX    TMP DP  RH WIND       PRES   REMARKS
OCEAN CITY     CLOUDY    44  39  82 MISG      30.31R
SALISBURY      CLOUDY    44  39  82 CALM      30.30S
BAY BRIDGE AP* CLOUDY    46  41  81 SE3       30.29S
CAMBRIDGE*     CLOUDY    45  39  81 CALM      30.29F
EASTON*        CLOUDY    46  42  85 CALM      30.33S

$$

MDZ017>025-190600-
SOUTHERN MARYLAND

CITY           SKY/WX    TMP DP  RH WIND       PRES   REMARKS
PATUXENT RIVER CLOUDY    46  40  79 S3        30.29F
ST INIGOES     CLOUDY    47  42  83 S5        30.29S
LEONARDTOWN*   CLOUDY    45  37  76 CALM      30.30S

$$

MDZ003>005-190600-
NORTH CENTRAL MARYLAND

CITY           SKY/WX    TMP DP  RH WIND       PRES   REMARKS
FREDERICK*     CLOUDY    43  41  93 S3        30.30S
HAGERSTOWN APT CLOUDY    48  33  56 CALM      30.25S
WESTMINSTER*   CLOUDY    45  34  65 CALM      30.26S

$$

MDZ501>502-190600-
WESTERN MARYLAND

CITY           SKY/WX    TMP DP  RH WIND       PRES   REMARKS
OAKLAND*       CLOUDY    46  28  49 S3        30.24R
CUMBERLAND*    CLOUDY    46  37  71 CALM      30.29R

$$

VAZ025>031-190600-
SHENANDOAH VALLEY

CITY           SKY/WX    TMP DP  RH WIND       PRES   REMARKS
WINCHESTER*    CLOUDY    43  36  75 CALM      30.25R
STAUNTON*      CLOUDY    44  38  78 CALM      30.25F

$$

WVZ021-048>050-054>055-190600-
EASTERN WEST VIRGINIA PANHANDLE

CITY           SKY/WX    TMP DP  RH WIND       PRES   REMARKS
MARTINSBURG    CLOUDY    45  36  70 CALM      30.26S
PETERSBURG*    CLOUDY    50  45  84 CALM      30.26S

$$

VAZ036>039-050-190600-
CENTRAL FOOTHILLS

CITY           SKY/WX    TMP DP  RH WIND       PRES   REMARKS
CHARLOTTESVILL CLOUDY    47  38  71 CALM      30.25F
CULPEPER*      CLOUDY    45  37  76 CALM      30.29S

$$

VAZ055>057-190600-
NORTH AND CENTRAL PIEDMONT

CITY           SKY/WX    TMP DP  RH WIND       PRES   REMARKS
FREDERICKSBRG* CLOUDY    46  39  76 CALM      30.28S
STAFFORD*      CLOUDY    45  40  83 CALM      30.33S

$$

NCZ024-NYZ072-PAZ021-071-VAZ022-071-190600-
OTHER REGIONAL OBSERVATIONS

CITY           SKY/WX    TMP DP  RH WIND       PRES   REMARKS
NEW YORK CITY  CLOUDY    42  31  64 W5        30.29S
PHILADELPHIA   CLOUDY    45  37  73 S10       30.28F
PITTSBURGH     MOCLDY    53  39  59 N12       30.24R
ROANOKE        CLOUDY    47  39  74 CALM      30.26F
RICHMOND       CLOUDY    47  40  76 SE3       30.29F
RALEIGH        LGT RAIN  49  45  86 NE7       30.22F

$$

ANZ530>537-190600-
MARINE OBSERVATIONS

STATION/POSITION TIME  TEMP    WIND        PRES
                       AIR SEA DIR/SP/G
                 (UTC) (F)     (DEG/KT/KT) (MB)
THOMAS PT LIGHT  0500   49 52  170/  4/  5 1026.2R
BALT KEY BRIDGE  0500   49     180/  3/  4 1025.5R
COVE POINT       0500   47     200/  5/  6 1025.6S
LEWISETTA        0500   46 53  180/  5/  6 1025.8F
SOLOMONS ISLAND  0500      52                N/A
PINEY POINT      0500          200/ 10/ 11   N/A

$$




USA.gov is the U.S. government's official web portal to all federal, state and local government web resources and services.